Location: ??????????
(44.2167°N, 135.5333°E)
Time: 14:13:44
(UTC+00:00)

Cosmos 468 Rocket - Pass Details

Date: 15 June 2025
Orbit: 741 x 774 km, 74.0° (Epoch: 15 July)

Event Time Altitude Azimuth Distance (km) Brightness Sun altitude
Rises 14:16:46 0° 341° (NNW) 3,210 8.7 -21.8°
Reaches altitude 10° 14:19:10 10° 343° (NNW) 2,277 7.6 -21.9°
Maximum altitude 14:24:18 71° 68° (ENE) 790 4.0 -22.0°
Enters shadow 14:25:40 48° 135° (SE) 972 4.2 -22.0°
